{"data":{"norad_id":63403,"intl_designator":"2025-065E","name":"STARLINK-33676","alt_names":[],"object_type":"PAYLOAD","status":"ACTIVE","operator":null,"country":"US","launch_date":"2025-03-31","launch_site_code":"AFETR","launch_vehicle":null,"mission":null,"orbit_class":"UNKNOWN","rcs_meters":null,"size_class":null,"mass_kg":null,"dimensions":null,"purposes":["comms"],"wikipedia_slug":null,"has_3d_model":false,"image_url":null,"decayed_at":null,"tle_current":{"epoch":"2026-09-20T05:27:18.080640Z","epoch_age_seconds":182331,"freshness":"STALE","line1":"1 63403U 25065E   26263.22729260  .00010201  00000+0  37962-3 0  9996","line2":"2 63403  43.0030  88.2906 0001346 273.3548  86.7150 15.27586039 82594","mean_motion":15.27586039,"eccentricity":0.0001346,"inclination_deg":43.003,"raan_deg":88.2906,"arg_perigee_deg":273.3548,"mean_anomaly_deg":86.715,"bstar":0.00037962,"rev_number":8259,"period_min":94.266376049277,"perigee_km":482.10749994614,"apogee_km":483.95452637528,"semimajor_km":6861.1680131607,"source":"CELESTRAK","updated_at":"2026-09-21T09:00:34.978517Z"}}}